Valentine, NE

1:39 AM CDT on August 17, 2017 (GMT -0500)
Miller Field

Weather History for KVTN - April, 2014

Change the Weather History Date:

Thursday, April 10, 2014

  Actual Average Record
Temperature  
Mean Temperature 54 °F 44 °F  
Max Temperature 65 °F 58 °F 88 °F (1996)
Min Temperature 42 °F 31 °F 9 °F (1989)
Degree Days  
Heating Degree Days 11 21  
Month to date heating degree days 220 222  
Since 1 July heating degree days 6667 6351  
Cooling Degree Days 0 0  
Month to date cooling degree days 0 0  
Year to date cooling degree days 0 0  
Growing Degree Days 4 (Base 50)    
Moisture  
Dew Point 27 °F    
Average Humidity 41    
Maximum Humidity 65    
Minimum Humidity 16    
Precipitation  
Precipitation 0.00 in 0.07 in 0.76 in (2005)
Month to date precipitation 0.11 0.58  
Year to date precipitation 1.26 2.39  
Snow  
Snow 0.00 in 0.20 in 8.70 in (1995)
Month to date snowfall 0.3 1.8  
Since 1 July snowfall 31.8 30.4  
Snow Depth 0.00 in    
Sea Level Pressure  
Sea Level Pressure 29.93 in    
Wind  
Wind Speed 8 mph (WNW)    
Max Wind Speed 23 mph    
Max Gust Speed 29 mph    
Visibility 10 miles    
Events      
T = Trace of Precipitation, MM = Missing Value Source: NWS Daily Summary

Daily Weather History Graph

Daily Weather History Graph

Search for Another Location

Airport or City:

Trip Planner

Search our weather history database for the weather conditions in past years. The results will help you decide how hot, cold, wet, or windy it might be!

Date:

Astronomy

Apr. 10, 2014 Rise Set
Actual Time 7:08 AM CDT 8:18 PM CDT
Civil Twilight 6:39 AM CDT 8:48 PM CDT
Nautical Twilight 6:04 AM CDT 9:22 PM CDT
Astronomical Twilight 5:28 AM CDT 9:59 PM CDT
Moon 3:58 PM CDT (4/10) 4:39 AM CDT (4/10)
Length of Visible Light 14h 08m
Length of Day
13h 10m
Waxing Gibbous, 80% of the Moon is Illuminated
Apr 10
Waxing Gibbous
Apr 15
Full
Apr 22
Last Quarter
Apr 29
New
May 6
First Quarter

Hourly Weather History & Observations

Time (CDT) Temp. Windchill Dew Point Humidity Pressure Visibility Wind Dir Wind Speed Gust Speed Precip Events Conditions
12:52 AM 55.0 °F - 30.9 °F 40% 29.80 in 10.0 mi North 13.8 mph 24.2 mph N/A   Clear
1:52 AM 52.0 °F - 32.0 °F 47% 29.84 in 10.0 mi NNW 10.4 mph - N/A   Clear
2:52 AM 48.0 °F - 33.1 °F 56% 29.85 in 10.0 mi NW 4.6 mph - N/A   Scattered Clouds
3:52 AM 46.9 °F - 33.1 °F 59% 29.88 in 10.0 mi NW 9.2 mph - N/A   Overcast
4:52 AM 48.0 °F - 35.1 °F 61% 29.89 in 10.0 mi NW 6.9 mph - N/A   Overcast
5:52 AM 48.0 °F - 35.1 °F 61% 29.91 in 10.0 mi North 6.9 mph - N/A   Overcast
6:52 AM 46.9 °F - 34.0 °F 61% 29.92 in 10.0 mi NNE 4.6 mph - N/A   Partly Cloudy
7:52 AM 45.0 °F 41.2 °F 34.0 °F 65% 29.96 in 10.0 mi NW 6.9 mph - N/A   Clear
8:52 AM 46.4 °F 42.9 °F 33.8 °F 62% 29.98 in 10.0 mi NW 6.9 mph - N/A   Partly Cloudy
9:52 AM 51.1 °F - 34.0 °F 52% 29.99 in 10.0 mi NW 9.2 mph - N/A   Clear
10:52 AM 55.0 °F - 34.0 °F 45% 30.00 in 10.0 mi NNW 8.1 mph - N/A   Clear
11:52 AM 57.9 °F - 26.1 °F 30% 30.00 in 10.0 mi NNW 10.4 mph - N/A   Clear
12:52 PM 59.0 °F - 21.0 °F 23% 29.99 in 10.0 mi NW 5.8 mph - N/A   Clear
1:52 PM 61.0 °F - 18.0 °F 19% 29.98 in 10.0 mi NNW 8.1 mph 16.1 mph N/A   Partly Cloudy
2:52 PM 63.0 °F - 18.0 °F 18% 29.96 in 10.0 mi Variable 5.8 mph - N/A   Partly Cloudy
3:52 PM 64.0 °F - 17.1 °F 16% 29.94 in 10.0 mi Variable 5.8 mph - N/A   Clear
4:52 PM 62.1 °F - 16.0 °F 17% 29.94 in 10.0 mi Variable 4.6 mph - N/A   Mostly Cloudy
5:52 PM 63.0 °F - 17.1 °F 17% 29.91 in 10.0 mi WSW 8.1 mph - N/A   Clear
6:52 PM 62.1 °F - 17.1 °F 18% 29.92 in 10.0 mi SSW 10.4 mph - N/A   Partly Cloudy
7:52 PM 59.0 °F - 21.9 °F 24% 29.93 in 10.0 mi SW 8.1 mph - N/A   Clear
8:52 PM 50.0 °F - 23.0 °F 35% 29.95 in 10.0 mi SSW 3.5 mph - N/A   Scattered Clouds
9:52 PM 46.9 °F - 25.0 °F 42% 29.97 in 10.0 mi SW 6.9 mph - N/A   Partly Cloudy
10:52 PM 52.0 °F - 37.9 °F 59% 29.96 in 10.0 mi SW 13.8 mph - N/A   Clear
11:52 PM 44.1 °F 40.1 °F 34.0 °F 68% 29.97 in 10.0 mi WSW 6.9 mph - N/A   Clear